^^
Station Historical Data
 
Daily Summary for May 21, 2018 Units:  Metric    English   Both
« Previous Day
Next Day »
Daily Weekly Monthly Yearly Custom
  Current: High: Low: Average:
Temperature: 9.3 °C -17.8 °C 9.3 °C 10.4 °C
Dew Point: 6.4 °C -17.8 °C 6.4 °C 8.1 °C
Humidity: 82 % Humidity % 78 % 85 %
Wind Speed: 12.9 km/h 0 km/h 0 km/h 7.2 km/h
Wind Gust: 24.1 km/h 0 km/h - -
Wind:North - - SSE
Pressure: 1024.6 hPa 0 hPa 1019.2 hPa -
Precipitation: 3.81 mm      
Historical Graphs
 
 


Weather Camera

Weather Camera




Garrymore Current Conditions

Find more about Weather in Mountmellick, IE
Click for weather forecast
Tabular Data for May 21, 2018
Time Temperature Dew Point Pressure Wind Wind Speed Wind Gust Humidity Rainfall Rate (Hourly) solar Conditions
-17.8 °C -17.8 °C 0 hPa Calm     Humidity % 0 mm SolarRadiationWatts/m^2 W/m2 Conditions
00:00 9.9 °C 7.3 °C 1020.2 hPa SSE 9.7 km/h 12.9 km/h 84 % 0 mm 0.0 W/m2 -RA
00:05 9.8 °C 7.2 °C 1020.2 hPa SSE 4.8 km/h 12.9 km/h 84 % 0.25 mm 0.0 W/m2 -RA
00:10 9.8 °C 7.2 °C 1020.2 hPa SSE 9.7 km/h 17.7 km/h 84 % 0 mm 0.0 W/m2 -RA
00:15 9.7 °C 7.1 °C 1020.2 hPa SSE 8 km/h 12.9 km/h 84 % 0 mm 0.0 W/m2 -RA
00:20 9.6 °C 7 °C 1020.2 hPa SSE 4.8 km/h 9.7 km/h 84 % 0 mm 0.0 W/m2 -RA
00:25 9.6 °C 7 °C 1020.2 hPa SSE 4.8 km/h 9.7 km/h 84 % 0.25 mm 0.0 W/m2 -RA
00:30 9.5 °C 6.9 °C 1019.9 hPa SSE 4.8 km/h 9.7 km/h 84 % 0 mm 0.0 W/m2 -RA
00:35 9.5 °C 6.9 °C 1020.2 hPa SSE 8 km/h 12.9 km/h 84 % 0 mm 0.0 W/m2 -RA
00:40 9.5 °C 6.9 °C 1020.2 hPa SSE 4.8 km/h 12.9 km/h 84 % 0 mm 0.0 W/m2 -RA
00:45 9.5 °C 6.9 °C 1020.2 hPa SSE 1.6 km/h 9.7 km/h 84 % 0 mm 0.0 W/m2 -RA
00:50 9.5 °C 7.1 °C 1020.2 hPa Calm   3.2 km/h 85 % 0.25 mm 0.0 W/m2 -RA
00:55 9.5 °C 7.1 °C 1020.5 hPa Calm   4.8 km/h 85 % 0 mm 0.0 W/m2 -RA
01:00 9.5 °C 7.1 °C 1020.2 hPa SE 1.6 km/h 4.8 km/h 85 % 0 mm 0.0 W/m2 -RA
01:05 9.5 °C 7.1 °C 1020.2 hPa SSE 1.6 km/h 3.2 km/h 85 % 0 mm 0.0 W/m2 -RA
01:10 9.5 °C 7.1 °C 1020.5 hPa SSE 3.2 km/h 8 km/h 85 % 0 mm 0.0 W/m2 -RA
01:15 9.5 °C 7.1 °C 1020.2 hPa SSE 4.8 km/h 9.7 km/h 85 % 0 mm 0.0 W/m2 -RA
01:20 9.5 °C 7.1 °C 1020.2 hPa SE 3.2 km/h 8 km/h 85 % 0 mm 0.0 W/m2 -RA
01:25 9.5 °C 7.1 °C 1019.9 hPa SE 1.6 km/h 6.4 km/h 85 % 0.25 mm 0.0 W/m2 -RA
01:30 9.5 °C 7.1 °C 1020.2 hPa SE 3.2 km/h 6.4 km/h 85 % 0 mm 0.0 W/m2 -RA
01:35 9.5 °C 7.1 °C 1020.2 hPa SSE 4.8 km/h 8 km/h 85 % 0 mm 0.0 W/m2 -RA
01:40 9.5 °C 7.1 °C 1019.9 hPa SSE 3.2 km/h 8 km/h 85 % 0 mm 0.0 W/m2 -RA
01:45 9.5 °C 7.1 °C 1020.2 hPa South 1.6 km/h 4.8 km/h 85 % 0 mm 0.0 W/m2 -RA
01:50 9.5 °C 7.1 °C 1020.2 hPa SSE 1.6 km/h 3.2 km/h 85 % 0 mm 0.0 W/m2 -RA
01:55 9.5 °C 7.1 °C 1020.2 hPa SE 1.6 km/h 6.4 km/h 85 % 0 mm 0.0 W/m2 -RA
02:00 9.5 °C 7.1 °C 1019.9 hPa Calm   4.8 km/h 85 % 0.25 mm 0.0 W/m2 -RA
02:05 9.5 °C 7.3 °C 1019.9 hPa East 1.6 km/h 4.8 km/h 86 % 0 mm 0.0 W/m2 -RA
02:10 9.5 °C 7.3 °C 1019.9 hPa Calm   4.8 km/h 86 % 0 mm 0.0 W/m2 -RA
02:15 9.5 °C 7.3 °C 1020.2 hPa ESE 1.6 km/h 6.4 km/h 86 % 0 mm 0.0 W/m2 -RA
02:20 9.6 °C 7.4 °C 1019.9 hPa SSE 3.2 km/h 9.7 km/h 86 % 0 mm 0.0 W/m2 -RA
02:25 9.6 °C 7.4 °C 1019.9 hPa SSE 1.6 km/h 6.4 km/h 86 % 0 mm 0.0 W/m2 -RA
02:30 9.6 °C 7.6 °C 1019.9 hPa SSE 4.8 km/h 8 km/h 87 % 0 mm 0.0 W/m2 -RA
02:35 9.7 °C 7.7 °C 1019.9 hPa SSE 4.8 km/h 9.7 km/h 87 % 0 mm 0.0 W/m2 -RA
02:40 9.7 °C 7.7 °C 1019.5 hPa SSE 4.8 km/h 9.7 km/h 87 % 0 mm 0.0 W/m2 -RA
02:45 9.7 °C 7.7 °C 1019.5 hPa SSE 4.8 km/h 9.7 km/h 87 % 0 mm 0.0 W/m2 -RA
02:50 9.7 °C 7.7 °C 1019.5 hPa SSE 4.8 km/h 11.3 km/h 87 % 0 mm 0.0 W/m2 -RA
02:55 9.7 °C 7.8 °C 1019.5 hPa SSE 8 km/h 12.9 km/h 88 % 0 mm 0.0 W/m2 -RA
03:00 9.7 °C 7.8 °C 1019.5 hPa SSE 9.7 km/h 12.9 km/h 88 % 0 mm 0.0 W/m2 -RA
03:05 9.7 °C 7.8 °C 1019.5 hPa SSE 9.7 km/h 12.9 km/h 88 % 0 mm 0.0 W/m2 -RA
03:10 9.8 °C 7.9 °C 1019.5 hPa SE 11.3 km/h 14.5 km/h 88 % 0 mm 0.0 W/m2 -RA
03:15 9.8 °C 7.9 °C 1019.5 hPa SSE 4.8 km/h 14.5 km/h 88 % 0 mm 0.0 W/m2 -RA
03:20 9.8 °C 8.1 °C 1019.5 hPa South 8 km/h 11.3 km/h 89 % 0 mm 0.0 W/m2 -RA
03:25 9.8 °C 8.1 °C 1019.5 hPa South 9.7 km/h 12.9 km/h 89 % 0 mm 0.0 W/m2 -RA
03:30 9.8 °C 8.1 °C 1019.5 hPa South 8 km/h 12.9 km/h 89 % 0 mm 0.0 W/m2 -RA
03:35 9.8 °C 8.1 °C 1019.5 hPa SSE 4.8 km/h 12.9 km/h 89 % 0 mm 0.0 W/m2 -RA
03:40 9.8 °C 8.1 °C 1019.5 hPa SSE 3.2 km/h 9.7 km/h 89 % 0.25 mm 0.0 W/m2 -RA
03:45 9.8 °C 8.1 °C 1019.5 hPa South 4.8 km/h 9.7 km/h 89 % 0 mm 0.0 W/m2 -RA
03:50 9.8 °C 8.1 °C 1019.5 hPa South 4.8 km/h 8 km/h 89 % 0 mm 0.0 W/m2 BKN
03:55 9.9 °C 8.3 °C 1019.5 hPa South 4.8 km/h 8 km/h 90 % 0 mm 0.0 W/m2 BKN
04:05 9.9 °C 8.3 °C 1019.5 hPa South 8 km/h 9.7 km/h 90 % 0 mm 0.0 W/m2 BKN
04:10 9.9 °C 8.3 °C 1019.5 hPa South 4.8 km/h 12.9 km/h 90 % 0 mm 0.0 W/m2 BKN
04:15 9.9 °C 8.3 °C 1019.5 hPa South 3.2 km/h 9.7 km/h 90 % 0 mm 0.0 W/m2 BKN
04:20 9.9 °C 8.3 °C 1019.5 hPa South 4.8 km/h 11.3 km/h 90 % 0.25 mm 0.0 W/m2 RA
04:25 9.9 °C 8.3 °C 1019.5 hPa South 4.8 km/h 9.7 km/h 90 % 0 mm 0.0 W/m2 RA
04:30 9.9 °C 8.3 °C 1019.5 hPa South 4.8 km/h 9.7 km/h 90 % 0 mm 0.0 W/m2 BKN
04:35 9.9 °C 8.3 °C 1019.5 hPa South 4.8 km/h 8 km/h 90 % 0 mm 0.0 W/m2 BKN
04:40 9.9 °C 8.3 °C 1019.2 hPa SSE 3.2 km/h 8 km/h 90 % 0 mm 0.0 W/m2 BKN
04:45 9.9 °C 8.3 °C 1019.2 hPa SSE 3.2 km/h 8 km/h 90 % 0 mm 0.0 W/m2 BKN
04:50 10 °C 8.3 °C 1019.5 hPa South 4.8 km/h 9.7 km/h 89 % 0 mm 0.0 W/m2 BKN
04:55 10 °C 8.3 °C 1019.2 hPa South 8 km/h 9.7 km/h 89 % 0 mm 0.0 W/m2 BKN
05:00 10 °C 8.3 °C 1019.5 hPa South 4.8 km/h 9.7 km/h 89 % 0 mm 0.0 W/m2 BKN
05:05 10 °C 8.3 °C 1019.5 hPa SSE 4.8 km/h 9.7 km/h 89 % 0 mm 0.0 W/m2 BKN
05:10 10 °C 8.3 °C 1019.5 hPa SE 3.2 km/h 9.7 km/h 89 % 0 mm 0.0 W/m2 BKN
05:15 10 °C 8.3 °C 1019.5 hPa SSE 3.2 km/h 9.7 km/h 89 % 0 mm 0.0 W/m2 BKN
05:20 10 °C 8.3 °C 1019.5 hPa Calm   4.8 km/h 89 % 0 mm 0.0 W/m2 OVC
05:25 10 °C 8.3 °C 1019.5 hPa ESE 1.6 km/h 3.2 km/h 89 % 0 mm 0.0 W/m2 OVC
05:30 10 °C 8.3 °C 1019.5 hPa Calm   3.2 km/h 89 % 0 mm 0.0 W/m2 OVC
05:35 10 °C 8.3 °C 1019.5 hPa NE 1.6 km/h 4.8 km/h 89 % 0 mm 0.0 W/m2 OVC
05:40 10 °C 8.3 °C 1019.5 hPa ENE 3.2 km/h 6.4 km/h 89 % 0 mm 0.0 W/m2 OVC
05:45 10 °C 8.3 °C 1019.5 hPa ESE 1.6 km/h 8 km/h 89 % 0 mm 0.0 W/m2 OVC
06:05 10 °C 8.3 °C 1019.5 hPa SSE 1.6 km/h 6.4 km/h 89 % 0 mm 0.0 W/m2 OVC
06:10 10 °C 8.3 °C 1019.5 hPa SE 3.2 km/h 8 km/h 89 % 0.25 mm 0.0 W/m2 RA
06:15 10 °C 8.3 °C 1019.9 hPa SSE 1.6 km/h 9.7 km/h 89 % 0 mm 0.0 W/m2 RA
06:20 10 °C 8.3 °C 1019.9 hPa South 3.2 km/h 6.4 km/h 89 % 0 mm 0.0 W/m2 OVC
06:25 10.1 °C 8.4 °C 1019.9 hPa SSE 1.6 km/h 6.4 km/h 89 % 0 mm 0.0 W/m2 OVC
06:30 10.1 °C 8.4 °C 1019.9 hPa SSE 4.8 km/h 6.4 km/h 89 % 0 mm 0.0 W/m2 OVC
06:35 10.1 °C 8.4 °C 1019.9 hPa South 1.6 km/h 8 km/h 89 % 0 mm 0.0 W/m2 OVC
06:40 10.1 °C 8.4 °C 1020.2 hPa SSE 3.2 km/h 6.4 km/h 89 % 0 mm 0.0 W/m2 OVC
06:45 10.1 °C 8.4 °C 1019.9 hPa SSE 1.6 km/h 8 km/h 89 % 0 mm 0.0 W/m2 OVC
06:50 10.2 °C 8.4 °C 1020.2 hPa SSE 3.2 km/h 8 km/h 89 % 0 mm 0.0 W/m2 OVC
06:55 10.2 °C 8.4 °C 1020.2 hPa SSE 4.8 km/h 8 km/h 89 % 0 mm 0.0 W/m2 OVC
07:00 10.2 °C 8.4 °C 1020.2 hPa SSE 3.2 km/h 8 km/h 89 % 0 mm 0.0 W/m2 OVC
07:10 10.2 °C 8.4 °C 1020.2 hPa South 9.7 km/h 12.9 km/h 89 % 0.25 mm 0.0 W/m2 RA
07:15 10.3 °C 8.6 °C 1020.2 hPa South 4.8 km/h 12.9 km/h 89 % 0 mm 0.0 W/m2 RA
07:20 10.3 °C 8.6 °C 1020.2 hPa SSE 8 km/h 16.1 km/h 89 % 0 mm 0.0 W/m2 OVC
07:25 10.3 °C 8.6 °C 1020.2 hPa South 4.8 km/h 16.1 km/h 89 % 0 mm 0.0 W/m2 OVC
07:30 10.3 °C 8.6 °C 1020.5 hPa South 8 km/h 11.3 km/h 89 % 0.25 mm 0.0 W/m2 RA
07:35 10.3 °C 8.6 °C 1020.5 hPa South 4.8 km/h 12.9 km/h 89 % 0 mm 0.0 W/m2 RA
07:40 10.3 °C 8.7 °C 1020.2 hPa South 9.7 km/h 12.9 km/h 90 % 0 mm 0.0 W/m2 OVC
07:45 10.4 °C 8.8 °C 1020.5 hPa South 9.7 km/h 12.9 km/h 90 % 0 mm 0.0 W/m2 OVC
07:50 10.4 °C 8.8 °C 1020.2 hPa South 8 km/h 12.9 km/h 90 % 0 mm 0.0 W/m2 OVC
07:55 10.4 °C 8.8 °C 1020.2 hPa South 4.8 km/h 12.9 km/h 90 % 0.25 mm 0.0 W/m2 RA
08:00 10.5 °C 8.9 °C 1020.2 hPa South 4.8 km/h 14.5 km/h 90 % 0 mm 0.0 W/m2 RA
08:05 10.6 °C 9 °C 1020.2 hPa South 9.7 km/h 17.7 km/h 90 % 0 mm 0.0 W/m2 OVC
08:10 10.6 °C 9 °C 1020.5 hPa South 9.7 km/h 19.3 km/h 90 % 0 mm 0.0 W/m2 OVC
08:15 10.7 °C 9.1 °C 1020.2 hPa South 9.7 km/h 16.1 km/h 90 % 0 mm 0.0 W/m2 OVC
08:20 10.8 °C 9.2 °C 1020.2 hPa South 9.7 km/h 16.1 km/h 90 % 0.25 mm 0.0 W/m2 RA
08:25 10.9 °C 9.3 °C 1020.5 hPa South 9.7 km/h 14.5 km/h 90 % 0 mm 0.0 W/m2 RA
08:30 11 °C 9.3 °C 1020.5 hPa South 9.7 km/h 14.5 km/h 89 % 0 mm 0.0 W/m2 OVC
08:35 11.1 °C 9.3 °C 1020.2 hPa South 9.7 km/h 14.5 km/h 89 % 0 mm 0.0 W/m2 OVC
08:40 11.1 °C 9.3 °C 1020.5 hPa South 9.7 km/h 12.9 km/h 89 % 0 mm 0.0 W/m2 OVC
08:45 11.2 °C 9.4 °C 1020.5 hPa South 9.7 km/h 16.1 km/h 89 % 0 mm 0.0 W/m2 OVC
08:50 11.2 °C 9.4 °C 1020.5 hPa South 8 km/h 12.9 km/h 89 % 0 mm 0.0 W/m2 OVC
08:55 11.3 °C 9.6 °C 1020.5 hPa SSE 9.7 km/h 12.9 km/h 89 % 0 mm 0.0 W/m2 OVC
09:00 11.3 °C 9.6 °C 1020.5 hPa SSE 8 km/h 12.9 km/h 89 % 0 mm 0.0 W/m2 OVC
09:05 11.3 °C 9.6 °C 1020.5 hPa South 8 km/h 11.3 km/h 89 % 0 mm 0.0 W/m2 OVC
09:10 11.3 °C 9.6 °C 1020.5 hPa South 3.2 km/h 9.7 km/h 89 % 0 mm 0.0 W/m2 OVC
09:15 11.3 °C 9.6 °C 1020.5 hPa South 4.8 km/h 8 km/h 89 % 0 mm 0.0 W/m2 OVC
09:20 11.3 °C 9.6 °C 1020.5 hPa South 4.8 km/h 9.7 km/h 89 % 0 mm 0.0 W/m2 OVC
09:25 11.3 °C 9.6 °C 1020.5 hPa South 3.2 km/h 8 km/h 89 % 0 mm 0.0 W/m2 OVC
09:30 11.3 °C 9.6 °C 1020.5 hPa Calm   9.7 km/h 89 % 0 mm 0.0 W/m2 OVC
09:35 11.9 °C 10.2 °C 1020.5 hPa South 4.8 km/h 8 km/h 89 % 0 mm 0.0 W/m2 OVC
09:40 11.9 °C 10.2 °C 1020.9 hPa South 1.6 km/h 8 km/h 89 % 0 mm 0.0 W/m2 OVC
09:45 11.9 °C 10.2 °C 1020.5 hPa SSE 4.8 km/h 8 km/h 89 % 0 mm 0.0 W/m2 OVC
09:50 12.2 °C 10.6 °C 1020.5 hPa South 4.8 km/h 9.7 km/h 90 % 0 mm 0.0 W/m2 OVC
09:55 12.3 °C 10.9 °C 1020.5 hPa South 4.8 km/h 9.7 km/h 91 % 0 mm 0.0 W/m2 OVC
10:00 12.5 °C 10.9 °C 1020.5 hPa SE 3.2 km/h 9.7 km/h 90 % 0 mm 0.0 W/m2 OVC
10:05 12.6 °C 11 °C 1020.9 hPa SSE 4.8 km/h 9.7 km/h 90 % 0 mm 0.0 W/m2 OVC
10:10 12.6 °C 11 °C 1020.9 hPa South 4.8 km/h 9.7 km/h 90 % 0 mm 0.0 W/m2 OVC
10:20 12.3 °C 10.6 °C 1020.9 hPa SSW 1.6 km/h 9.7 km/h 89 % 0 mm 0.0 W/m2 OVC
10:25 12.2 °C 10.3 °C 1020.9 hPa WNW 1.6 km/h 8 km/h 88 % 0 mm 0.0 W/m2 OVC
10:30 12 °C 10.1 °C 1021.2 hPa West 4.8 km/h 8 km/h 88 % 0 mm 0.0 W/m2 OVC
10:35 12 °C 10.1 °C 1020.9 hPa WNW 3.2 km/h 8 km/h 88 % 0 mm 0.0 W/m2 OVC
10:40 12.2 °C 10.3 °C 1020.9 hPa NW 8 km/h 11.3 km/h 88 % 0 mm 0.0 W/m2 OVC
10:45 12.3 °C 10.4 °C 1020.9 hPa NW 4.8 km/h 11.3 km/h 88 % 0 mm 0.0 W/m2 OVC
10:50 12.5 °C 10.4 °C 1021.2 hPa NW 1.6 km/h 8 km/h 87 % 0 mm 0.0 W/m2 OVC
10:55 12.5 °C 10.4 °C 1021.2 hPa North 1.6 km/h 6.4 km/h 87 % 0 mm 0.0 W/m2 OVC
11:00 12.5 °C 10.4 °C 1021.2 hPa NNW 4.8 km/h 8 km/h 87 % 0 mm 0.0 W/m2 OVC
11:05 12.5 °C 10.4 °C 1021.6 hPa West 3.2 km/h 6.4 km/h 87 % 0 mm 0.0 W/m2 OVC
11:10 12.1 °C 9.8 °C 1021.2 hPa West 1.6 km/h 8 km/h 86 % 0 mm 0.0 W/m2 OVC
11:15 12.1 °C 9.8 °C 1021.6 hPa NNW 1.6 km/h 11.3 km/h 86 % 0 mm 0.0 W/m2 OVC
11:20 12 °C 9.7 °C 1021.6 hPa NNW 4.8 km/h 14.5 km/h 86 % 0 mm 0.0 W/m2 OVC
11:25 11.8 °C 9.6 °C 1021.6 hPa NNW 9.7 km/h 12.9 km/h 86 % 0 mm 0.0 W/m2 OVC
11:30 11.3 °C 8.9 °C 1021.6 hPa NNW 4.8 km/h 12.9 km/h 85 % 0 mm 0.0 W/m2 OVC
11:35 11.3 °C 8.7 °C 1021.6 hPa NNW 9.7 km/h 20.9 km/h 84 % 0 mm 0.0 W/m2 OVC
11:40 11.3 °C 8.7 °C 1021.6 hPa NNW 12.9 km/h 20.9 km/h 84 % 0 mm 0.0 W/m2 OVC
11:50 11.3 °C 8.9 °C 1021.9 hPa North 4.8 km/h 19.3 km/h 85 % 0 mm 0.0 W/m2 OVC
11:55 11.3 °C 8.9 °C 1021.6 hPa North 9.7 km/h 16.1 km/h 85 % 0 mm 0.0 W/m2 OVC
12:00 11.3 °C 8.7 °C 1021.6 hPa North 11.3 km/h 17.7 km/h 84 % 0 mm 0.0 W/m2 OVC
12:05 11.3 °C 8.5 °C 1021.9 hPa North 9.7 km/h 17.7 km/h 83 % 0 mm 0.0 W/m2 OVC
12:10 11.3 °C 8.5 °C 1021.9 hPa North 11.3 km/h 17.7 km/h 83 % 0 mm 0.0 W/m2 OVC
12:15 11.3 °C 8.5 °C 1021.9 hPa NNE 8 km/h 16.1 km/h 83 % 0 mm 0.0 W/m2 OVC
12:20 11.3 °C 8.5 °C 1021.9 hPa North 9.7 km/h 17.7 km/h 83 % 0 mm 0.0 W/m2 OVC
12:25 11.3 °C 8.5 °C 1021.9 hPa North 9.7 km/h 16.1 km/h 83 % 0 mm 0.0 W/m2 OVC
12:30 11.3 °C 8.5 °C 1021.9 hPa North 8 km/h 16.1 km/h 83 % 0 mm 0.0 W/m2 OVC
12:35 11.3 °C 8.5 °C 1021.9 hPa North 9.7 km/h 17.7 km/h 83 % 0 mm 0.0 W/m2 OVC
12:40 11.3 °C 8.5 °C 1021.9 hPa North 4.8 km/h 16.1 km/h 83 % 0 mm 0.0 W/m2 OVC
12:45 11.2 °C 8.4 °C 1021.9 hPa NNE 9.7 km/h 20.9 km/h 83 % 0 mm 0.0 W/m2 OVC
12:55 11.2 °C 8.2 °C 1021.9 hPa North 4.8 km/h 19.3 km/h 82 % 0 mm 0.0 W/m2 OVC
13:00 11.2 °C 8.4 °C 1021.9 hPa North 11.3 km/h 16.1 km/h 83 % 0 mm 0.0 W/m2 OVC
13:05 11.2 °C 8.4 °C 1021.9 hPa NNE 4.8 km/h 14.5 km/h 83 % 0 mm 0.0 W/m2 OVC
13:10 11.2 °C 8.4 °C 1022.2 hPa NNE 11.3 km/h 16.1 km/h 83 % 0 mm 0.0 W/m2 OVC
13:15 11.2 °C 8.2 °C 1022.2 hPa NNW 9.7 km/h 19.3 km/h 82 % 0 mm 0.0 W/m2 OVC
13:20 11.2 °C 8.2 °C 1022.6 hPa NNW 4.8 km/h 19.3 km/h 82 % 0 mm 0.0 W/m2 BKN
13:30 11.2 °C 8.2 °C 1022.2 hPa North 4.8 km/h 12.9 km/h 82 % 0 mm 0.0 W/m2 BKN
13:35 11.2 °C 8.2 °C 1022.2 hPa North 4.8 km/h 19.3 km/h 82 % 0 mm 0.0 W/m2 BKN
13:40 11.2 °C 8.2 °C 1022.6 hPa NNW 8 km/h 20.9 km/h 82 % 0 mm 0.0 W/m2 BKN
13:45 11.2 °C 8.2 °C 1022.6 hPa NNW 8 km/h 12.9 km/h 82 % 0 mm 0.0 W/m2 BKN
13:50 11.3 °C 8.3 °C 1022.2 hPa North 9.7 km/h 17.7 km/h 82 % 0 mm 0.0 W/m2 BKN
13:55 11.2 °C 8.2 °C 1022.6 hPa North 9.7 km/h 16.1 km/h 82 % 0 mm 0.0 W/m2 BKN
14:00 11.2 °C 8.2 °C 1022.6 hPa North 11.3 km/h 16.1 km/h 82 % 0 mm 0.0 W/m2 BKN
14:05 11.2 °C 8.2 °C 1022.6 hPa NNW 9.7 km/h 17.7 km/h 82 % 0.25 mm 0.0 W/m2 RA
14:10 11.2 °C 8.2 °C 1022.9 hPa NNW 9.7 km/h 19.3 km/h 82 % 0 mm 0.0 W/m2 RA
14:15 11.2 °C 8.2 °C 1022.6 hPa North 11.3 km/h 20.9 km/h 82 % 0 mm 0.0 W/m2 BKN
14:20 11.2 °C 8.2 °C 1022.9 hPa North 9.7 km/h 19.3 km/h 82 % 0 mm 0.0 W/m2 BKN
14:25 11.2 °C 8.4 °C 1022.9 hPa North 9.7 km/h 19.3 km/h 83 % 0 mm 0.0 W/m2 BKN
14:30 11.2 °C 8.4 °C 1022.9 hPa North 12.9 km/h 19.3 km/h 83 % 0 mm 0.0 W/m2 BKN
14:35 11.2 °C 8.4 °C 1022.9 hPa North 9.7 km/h 19.3 km/h 83 % 0 mm 0.0 W/m2 BKN
14:40 11.2 °C 8.4 °C 1022.9 hPa NNE 8 km/h 19.3 km/h 83 % 0 mm 0.0 W/m2 BKN
14:50 11.2 °C 8.4 °C 1023.2 hPa NNW 9.7 km/h 14.5 km/h 83 % 0 mm 0.0 W/m2 BKN
14:55 11.2 °C 8.4 °C 1023.2 hPa NNW 4.8 km/h 14.5 km/h 83 % 0 mm 0.0 W/m2 BKN
15:00 11.2 °C 8.4 °C 1023.2 hPa North 9.7 km/h 16.1 km/h 83 % 0 mm 0.0 W/m2 BKN
15:05 11.2 °C 8.4 °C 1023.2 hPa North 9.7 km/h 14.5 km/h 83 % 0 mm 0.0 W/m2 BKN
15:10 11.2 °C 8.4 °C 1023.2 hPa North 11.3 km/h 20.9 km/h 83 % 0 mm 0.0 W/m2 BKN
15:15 11.2 °C 8.4 °C 1023.2 hPa North 11.3 km/h 20.9 km/h 83 % 0 mm 0.0 W/m2 BKN
15:20 11.2 °C 8.2 °C 1023.2 hPa North 12.9 km/h 17.7 km/h 82 % 0 mm 0.0 W/m2 BKN
15:25 11.2 °C 8.2 °C 1023.2 hPa North 11.3 km/h 19.3 km/h 82 % 0 mm 0.0 W/m2 BKN
15:30 11.2 °C 8.1 °C 1023.2 hPa North 14.5 km/h 24.1 km/h 81 % 0 mm 0.0 W/m2 BKN
15:35 11.2 °C 8.1 °C 1023.2 hPa North 11.3 km/h 24.1 km/h 81 % 0 mm 0.0 W/m2 BKN
15:40 11.2 °C 8.1 °C 1023.2 hPa North 12.9 km/h 20.9 km/h 81 % 0 mm 0.0 W/m2 BKN
15:45 11.2 °C 8.1 °C 1023.6 hPa North 12.9 km/h 22.5 km/h 81 % 0 mm 0.0 W/m2 BKN
15:50 11.2 °C 8.1 °C 1023.2 hPa North 19.3 km/h 25.7 km/h 81 % 0 mm 0.0 W/m2 BKN
15:55 11.2 °C 8.1 °C 1023.6 hPa NNE 16.1 km/h 25.7 km/h 81 % 0 mm 0.0 W/m2 BKN
16:00 11.1 °C 7.8 °C 1023.6 hPa North 19.3 km/h 24.1 km/h 80 % 0 mm 0.0 W/m2 BKN
16:05 11.1 °C 7.8 °C 1023.9 hPa North 14.5 km/h 22.5 km/h 80 % 0 mm 0.0 W/m2 BKN
16:10 11.1 °C 7.8 °C 1023.6 hPa NNE 9.7 km/h 22.5 km/h 80 % 0 mm 0.0 W/m2 BKN
16:15 11.1 °C 7.8 °C 1023.6 hPa NNE 8 km/h 22.5 km/h 80 % 0 mm 0.0 W/m2 BKN
16:20 11.1 °C 7.6 °C 1023.6 hPa NNE 14.5 km/h 22.5 km/h 79 % 0 mm 0.0 W/m2 BKN
16:25 11.1 °C 7.6 °C 1023.9 hPa NNE 14.5 km/h 24.1 km/h 79 % 0 mm 0.0 W/m2 BKN
16:30 11.1 °C 7.4 °C 1023.6 hPa NNE 14.5 km/h 24.1 km/h 78 % 0 mm 0.0 W/m2 BKN
16:35 11.1 °C 7.4 °C 1023.6 hPa North 4.8 km/h 22.5 km/h 78 % 0 mm 0.0 W/m2 BKN
16:40 11.1 °C 7.4 °C 1023.6 hPa NNE 9.7 km/h 22.5 km/h 78 % 0 mm 0.0 W/m2 BKN
16:45 11.1 °C 7.4 °C 1023.6 hPa NE 12.9 km/h 25.7 km/h 78 % 0 mm 0.0 W/m2 BKN
16:50 11.1 °C 7.4 °C 1023.6 hPa NE 11.3 km/h 22.5 km/h 78 % 0 mm 0.0 W/m2 BKN
16:55 11.1 °C 7.4 °C 1023.6 hPa NNE 16.1 km/h 24.1 km/h 78 % 0 mm 0.0 W/m2 BKN
17:00 11 °C 7.3 °C 1023.6 hPa NNE 11.3 km/h 24.1 km/h 78 % 0 mm 0.0 W/m2 BKN
17:05 11 °C 7.3 °C 1023.9 hPa NNE 11.3 km/h 17.7 km/h 78 % 0 mm 0.0 W/m2 BKN
17:10 11 °C 7.3 °C 1023.6 hPa North 14.5 km/h 20.9 km/h 78 % 0 mm 0.0 W/m2 BKN
17:15 10.8 °C 7.3 °C 1023.9 hPa North 12.9 km/h 22.5 km/h 79 % 0 mm 0.0 W/m2 BKN
17:20 10.6 °C 7.1 °C 1023.9 hPa North 9.7 km/h 20.9 km/h 79 % 0 mm 0.0 W/m2 BKN
17:25 10.4 °C 7.1 °C 1023.9 hPa North 11.3 km/h 24.1 km/h 80 % 0 mm 0.0 W/m2 BKN
17:30 10.3 °C 7 °C 1023.9 hPa NNE 12.9 km/h 22.5 km/h 80 % 0 mm 0.0 W/m2 BKN
17:35 10.2 °C 7.1 °C 1024.3 hPa NNE 19.3 km/h 24.1 km/h 81 % 0 mm 0.0 W/m2 BKN
17:40 10.1 °C 7 °C 1024.3 hPa NNE 11.3 km/h 24.1 km/h 81 % 0 mm 0.0 W/m2 BKN
17:45 10.1 °C 7 °C 1024.3 hPa NNE 11.3 km/h 19.3 km/h 81 % 0 mm 0.0 W/m2 BKN
17:50 10.1 °C 7 °C 1024.3 hPa NNE 11.3 km/h 19.3 km/h 81 % 0 mm 0.0 W/m2 BKN
17:55 10 °C 6.9 °C 1023.9 hPa North 12.9 km/h 22.5 km/h 81 % 0 mm 0.0 W/m2 BKN
18:00 10 °C 6.9 °C 1024.3 hPa North 9.7 km/h 22.5 km/h 81 % 0 mm 0.0 W/m2 BKN
18:05 10 °C 6.9 °C 1024.3 hPa NNE 12.9 km/h 24.1 km/h 81 % 0 mm 0.0 W/m2 BKN
18:10 9.9 °C 7 °C 1024.3 hPa NNE 14.5 km/h 22.5 km/h 82 % 0 mm 0.0 W/m2 BKN
18:15 9.8 °C 6.9 °C 1024.3 hPa North 20.9 km/h 27.4 km/h 82 % 0 mm 0.0 W/m2 BKN
18:20 9.7 °C 6.8 °C 1024.6 hPa NNE 12.9 km/h 27.4 km/h 82 % 0 mm 0.0 W/m2 BKN
18:25 9.7 °C 6.8 °C 1024.3 hPa NNE 9.7 km/h 19.3 km/h 82 % 0 mm 0.0 W/m2 BKN
18:30 9.6 °C 6.8 °C 1024.6 hPa North 16.1 km/h 22.5 km/h 83 % 0 mm 0.0 W/m2 BKN
18:35 9.5 °C 6.8 °C 1024.3 hPa North 11.3 km/h 22.5 km/h 83 % 0 mm 0.0 W/m2 BKN
18:40 9.5 °C 6.8 °C 1024.3 hPa NNE 14.5 km/h 22.5 km/h 83 % 0 mm 0.0 W/m2 BKN
18:45 9.5 °C 6.6 °C 1024.6 hPa North 12.9 km/h 20.9 km/h 82 % 0 mm 0.0 W/m2 BKN
18:50 9.5 °C 6.6 °C 1024.6 hPa North 11.3 km/h 20.9 km/h 82 % 0 mm 0.0 W/m2 BKN
18:55 9.5 °C 6.6 °C 1024.6 hPa North 12.9 km/h 24.1 km/h 82 % 0 mm 0.0 W/m2 BKN
19:00 9.4 °C 6.5 °C 1024.6 hPa North 9.7 km/h 24.1 km/h 82 % 0 mm 0.0 W/m2 BKN
19:05 9.4 °C 6.5 °C 1024.6 hPa North 16.1 km/h 20.9 km/h 82 % 0 mm 0.0 W/m2 BKN
19:10 9.3 °C 6.4 °C 1024.6 hPa North 14.5 km/h 20.9 km/h 82 % 0 mm 0.0 W/m2 BKN
19:15 9.3 °C 6.4 °C 1024.3 hPa North 9.7 km/h 20.9 km/h 82 % 0 mm 0.0 W/m2 BKN
19:20 9.3 °C 6.4 °C 1024.6 hPa North 12.9 km/h 24.1 km/h 82 % 0 mm 0.0 W/m2 BKN
Garrymore Weather Station, Geashill, Tullamore, Offaly, Ireland
Compliments of Weather Underground - 2 mb